| time (UTC) | temp F | wind direction | speed MPH | gust MPH | rain 1hr in | rain 24hr in | rain mn in | humidity % | barometer mb |
| 20260509150506 | 55 | 75 | 0.0 | 0.0 | 0.01 | 0.08 | 0.08 | 85 | 1010.3 |
| 20260509150007 | 55 | 122 | 0.0 | 0.0 | 0.01 | 0.08 | 0.08 | 85 | 1010.3 |
| 20260509145507 | 55 | 138 | 0.0 | 0.0 | 0.03 | 0.08 | 0.08 | 85 | 1010.4 |
| 20260509145007 | 55 | 132 | 0.0 | 0.0 | 0.03 | 0.08 | 0.08 | 85 | 1010.4 |
| 20260509144507 | 55 | 132 | 0.0 | 0.0 | 0.05 | 0.08 | 0.08 | 85 | 1010.4 |
| 20260509144007 | 55 | 132 | 0.0 | 0.0 | 0.05 | 0.08 | 0.08 | 85 | 1010.4 |
| 20260509143507 | 55 | 132 | 0.0 | 0.0 | 0.05 | 0.08 | 0.08 | 84 | 1010.5 |
| 20260509143007 | 55 | 132 | 0.0 | 0.0 | 0.06 | 0.08 | 0.08 | 84 | 1010.5 |
| 20260509142507 | 55 | 132 | 0.0 | 0.0 | 0.06 | 0.08 | 0.08 | 83 | 1010.4 |
| 20260509142006 | 55 | 132 | 0.0 | 0.0 | 0.07 | 0.08 | 0.08 | 83 | 1010.4 |
| 20260509141507 | 55 | 132 | 0.0 | 0.0 | 0.07 | 0.08 | 0.08 | 82 | 1010.3 |
| 20260509141007 | 55 | 132 | 0.0 | 0.0 | 0.07 | 0.08 | 0.08 | 82 | 1010.2 |
| 20260509140507 | 55 | 132 | 0.0 | 0.0 | 0.06 | 0.07 | 0.07 | 82 | 1010.3 |
| 20260509140006 | 55 | 133 | 0.0 | 0.0 | 0.06 | 0.07 | 0.07 | 80 | 1010.4 |
| 20260509135507 | 55 | 133 | 0.0 | 0.0 | 0.05 | 0.05 | 0.05 | 80 | 1010.4 |
| 20260509135006 | 55 | 133 | 0.0 | 0.0 | 0.05 | 0.05 | 0.05 | 80 | 1010.5 |
| 20260509134506 | 55 | 133 | 0.0 | 0.0 | 0.03 | 0.03 | 0.03 | 79 | 1010.4 |
| 20260509134007 | 55 | 133 | 0.0 | 0.0 | 0.03 | 0.03 | 0.03 | 79 | 1010.4 |
| 20260509133506 | 55 | 133 | 0.0 | 0.0 | 0.03 | 0.03 | 0.03 | 79 | 1010.3 |
| 20260509133006 | 55 | 133 | 0.0 | 0.0 | 0.02 | 0.02 | 0.02 | 78 | 1010.4 |
| 20260509132506 | 56 | 138 | 0.0 | 0.0 | 0.02 | 0.02 | 0.02 | 78 | 1010.4 |
| 20260509132006 | 56 | 138 | 0.0 | 0.0 | 0.01 | 0.01 | 0.01 | 77 | 1010.5 |
| 20260509130506 | 56 | 138 | 0.0 | 0.0 | 0.01 | 0.01 | 0.01 | 77 | 1010.5 |
| 20260509130006 | 56 | 137 | 0.0 | 0.0 | 0.01 | 0.01 | 0.01 | 77 | 1010.5 |
| 20260509124507 | 56 | 53 | 0.0 | 0.0 | 0.00 | 0.00 | 0.00 | 76 | 1010.4 |
| 20260509124007 | 56 | 53 | 0.0 | 0.0 | 0.00 | 0.00 | 0.00 | 78 | 1010.5 |
| 20260509123506 | 56 | 53 | 0.0 | 0.0 | 0.00 | 0.00 | 0.00 | 78 | 1010.5 |
| 20260509123006 | 55 | 53 | 0.0 | 0.0 | 0.00 | 0.00 | 0.00 | 79 | 1010.5 |
| 20260509122507 | 55 | 53 | 0.0 | 0.0 | 0.00 | 0.00 | 0.00 | 79 | 1010.5 |
| 20260509122007 | 55 | 53 | 0.0 | 0.0 | 0.00 | 0.00 | 0.00 | 78 | 1010.5 |
| 20260509121506 | 55 | 53 | 0.0 | 0.0 | 0.00 | 0.00 | 0.00 | 78 | 1010.5 |
| 20260509121007 | 55 | 53 | 0.0 | 0.0 | 0.00 | 0.00 | 0.00 | 79 | 1010.6 |
| 20260509120506 | 54 | 53 | 0.0 | 0.0 | 0.00 | 0.00 | 0.00 | 79 | 1010.7 |
| 20260509115506 | 54 | 53 | 0.0 | 0.0 | 0.00 | 0.00 | 0.00 | 78 | 1010.7 |
| 20260509115006 | 54 | 53 | 0.0 | 1.0 | 0.00 | 0.00 | 0.00 | 78 | 1010.8 |
| 20260509114506 | 54 | 53 | 0.0 | 0.0 | 0.00 | 0.00 | 0.00 | 77 | 1010.6 |
| 20260509114006 | 54 | 53 | 0.0 | 0.0 | 0.00 | 0.00 | 0.00 | 78 | 1010.6 |
| 20260509113507 | 53 | 53 | 0.0 | 0.0 | 0.00 | 0.00 | 0.00 | 78 | 1010.6 |
| 20260509113007 | 53 | 53 | 0.0 | 0.0 | 0.00 | 0.00 | 0.00 | 77 | 1010.5 |
| 20260509112506 | 53 | 47 | 0.0 | 1.0 | 0.00 | 0.00 | 0.00 | 77 | 1010.5 |
| 20260509111506 | 53 | 19 | 0.0 | 0.0 | 0.00 | 0.00 | 0.00 | 77 | 1010.4 |
| 20260509111006 | 53 | 19 | 0.0 | 0.0 | 0.00 | 0.00 | 0.00 | 76 | 1010.4 |
| 20260509110507 | 53 | 18 | 0.0 | 0.0 | 0.00 | 0.00 | 0.00 | 76 | 1010.4 |
| 20260509105506 | 52 | 18 | 0.0 | 0.0 | 0.00 | 0.00 | 0.00 | 75 | 1010.3 |
| 20260509105007 | 52 | 18 | 0.0 | 0.0 | 0.00 | 0.00 | 0.00 | 75 | 1010.2 |
| 20260509104506 | 52 | 18 | 0.0 | 0.0 | 0.00 | 0.00 | 0.00 | 76 | 1010.1 |
| 20260509104006 | 52 | 18 | 0.0 | 0.0 | 0.00 | 0.00 | 0.00 | 77 | 1010.0 |
| 20260509103506 | 52 | 18 | 0.0 | 0.0 | 0.00 | 0.00 | 0.00 | 77 | 1009.9 |
| 20260509103006 | 52 | 18 | 0.0 | 0.0 | 0.00 | 0.00 | 0.00 | 77 | 1009.8 |
| 20260509102005 | 52 | 19 | 0.0 | 0.0 | 0.00 | 0.00 | 0.00 | 77 | 1009.7 |
| 20260509100006 | 52 | 76 | 0.0 | 0.0 | 0.00 | 0.00 | 0.00 | 77 | 1009.3 |
| 20260509095505 | 52 | 76 | 0.0 | 0.0 | 0.00 | 0.00 | 0.00 | 77 | 1009.3 |
| 20260509095006 | 52 | 76 | 0.0 | 0.0 | 0.00 | 0.00 | 0.00 | 77 | 1009.4 |
| 20260509094506 | 53 | 76 | 0.0 | 0.0 | 0.00 | 0.00 | 0.00 | 77 | 1009.3 |
| 20260509093506 | 53 | 77 | 0.0 | 0.0 | 0.00 | 0.00 | 0.00 | 76 | 1009.4 |
| 20260509093006 | 53 | 77 | 0.0 | 0.0 | 0.00 | 0.00 | 0.00 | 76 | 1009.5 |
| 20260509092505 | 53 | 77 | 0.0 | 0.0 | 0.00 | 0.00 | 0.00 | 76 | 1009.4 |
| 20260509092006 | 53 | 77 | 0.0 | 0.0 | 0.00 | 0.00 | 0.00 | 76 | 1009.4 |
| 20260509091506 | 53 | 77 | 0.0 | 0.0 | 0.00 | 0.00 | 0.00 | 76 | 1009.4 |
| 20260509091006 | 53 | 77 | 0.0 | 0.0 | 0.00 | 0.00 | 0.00 | 75 | 1009.4 |
| 20260509090505 | 53 | 77 | 0.0 | 0.0 | 0.00 | 0.00 | 0.00 | 75 | 1009.4 |
| 20260509090005 | 53 | 77 | 0.0 | 0.0 | 0.00 | 0.00 | 0.00 | 75 | 1009.5 |
| 20260509085506 | 53 | 77 | 0.0 | 0.0 | 0.00 | 0.00 | 0.00 | 74 | 1009.5 |
| 20260509085005 | 53 | 77 | 0.0 | 0.0 | 0.00 | 0.00 | 0.00 | 74 | 1009.5 |
| 20260509084505 | 53 | 77 | 0.0 | 0.0 | 0.00 | 0.00 | 0.00 | 74 | 1009.5 |
| 20260509084005 | 53 | 77 | 0.0 | 0.0 | 0.00 | 0.00 | 0.00 | 74 | 1009.6 |
| 20260509083506 | 53 | 77 | 0.0 | 0.0 | 0.00 | 0.00 | 0.00 | 74 | 1009.5 |
| 20260509083006 | 53 | 77 | 0.0 | 0.0 | 0.00 | 0.00 | 0.00 | 74 | 1009.7 |
| 20260509082505 | 53 | 77 | 0.0 | 0.0 | 0.00 | 0.00 | 0.00 | 73 | 1009.6 |
| 20260509081506 | 53 | 77 | 0.0 | 0.0 | 0.00 | 0.00 | 0.00 | 73 | 1009.8 |
| 20260509081006 | 53 | 77 | 0.0 | 0.0 | 0.00 | 0.00 | 0.00 | 72 | 1009.7 |
| 20260509080505 | 53 | 77 | 0.0 | 0.0 | 0.00 | 0.00 | 0.00 | 72 | 1009.7 |
| 20260509080005 | 53 | 77 | 0.0 | 0.0 | 0.00 | 0.00 | 0.00 | 72 | 1009.7 |
| 20260509075505 | 53 | 77 | 0.0 | 0.0 | 0.00 | 0.00 | 0.00 | 71 | 1009.7 |
| 20260509075005 | 53 | 77 | 0.0 | 0.0 | 0.00 | 0.00 | 0.00 | 71 | 1009.7 |
| 20260509074505 | 53 | 77 | 0.0 | 0.0 | 0.00 | 0.00 | 0.00 | 71 | 1009.8 |
| 20260509074006 | 53 | 77 | 0.0 | 0.0 | 0.00 | 0.00 | 0.00 | 71 | 1009.8 |
| 20260509073505 | 53 | 77 | 0.0 | 0.0 | 0.00 | 0.00 | 0.00 | 70 | 1009.6 |
| 20260509073005 | 53 | 77 | 0.0 | 0.0 | 0.00 | 0.00 | 0.00 | 70 | 1009.8 |
| 20260509072505 | 53 | 77 | 0.0 | 0.0 | 0.00 | 0.00 | 0.00 | 70 | 1009.8 |
| 20260509072006 | 53 | 77 | 0.0 | 0.0 | 0.00 | 0.00 | 0.00 | 69 | 1009.8 |
| 20260509071505 | 53 | 77 | 0.0 | 0.0 | 0.00 | 0.00 | 0.00 | 69 | 1009.8 |
| 20260509071005 | 54 | 77 | 0.0 | 0.0 | 0.00 | 0.00 | 0.00 | 69 | 1009.8 |
| 20260509070506 | 54 | 77 | 0.0 | 0.0 | 0.00 | 0.00 | 0.00 | 69 | 1009.8 |
| 20260509065005 | 54 | 83 | 0.0 | 0.0 | 0.00 | 0.00 | 0.00 | 68 | 1009.9 |
| 20260509064506 | 54 | 83 | 0.0 | 0.0 | 0.00 | 0.00 | 0.00 | 67 | 1009.7 |
| 20260509064006 | 55 | 83 | 0.0 | 0.0 | 0.00 | 0.00 | 0.00 | 66 | 1009.8 |
| 20260509063005 | 55 | 83 | 0.0 | 0.0 | 0.00 | 0.00 | 0.00 | 65 | 1009.8 |
| 20260509062505 | 55 | 83 | 0.0 | 0.0 | 0.00 | 0.00 | 0.00 | 65 | 1009.9 |
| 20260509062004 | 55 | 83 | 0.0 | 0.0 | 0.00 | 0.00 | 0.00 | 64 | 1009.8 |
| 20260509061506 | 55 | 83 | 0.0 | 0.0 | 0.00 | 0.00 | 0.00 | 64 | 1010.0 |
| 20260509061006 | 55 | 83 | 0.0 | 0.0 | 0.00 | 0.00 | 0.00 | 64 | 1010.0 |
| 20260509060505 | 55 | 83 | 0.0 | 0.0 | 0.00 | 0.00 | 0.00 | 64 | 1010.1 |
| 20260509060005 | 55 | 83 | 0.0 | 0.0 | 0.00 | 0.00 | 0.00 | 64 | 1010.2 |
| 20260509055005 | 55 | 83 | 0.0 | 0.0 | 0.00 | 0.00 | 0.00 | 64 | 1010.3 |
| 20260509054505 | 55 | 90 | 0.0 | 0.0 | 0.00 | 0.00 | 0.00 | 64 | 1010.2 |
| 20260509053005 | 55 | 90 | 0.0 | 0.0 | 0.00 | 0.00 | 0.00 | 63 | 1010.1 |
| 20260509052504 | 55 | 90 | 0.0 | 0.0 | 0.00 | 0.00 | 0.00 | 64 | 1010.2 |
| 20260509052005 | 55 | 90 | 0.0 | 0.0 | 0.00 | 0.00 | 0.00 | 64 | 1010.1 |
| 20260509051505 | 56 | 90 | 0.0 | 0.0 | 0.00 | 0.00 | 0.00 | 64 | 1010.1 |
| 20260509051004 | 56 | 90 | 0.0 | 0.0 | 0.00 | 0.00 | 0.00 | 64 | 1010.1 |
| 20260509050505 | 56 | 90 | 0.0 | 0.0 | 0.00 | 0.00 | 0.00 | 64 | 1010.1 |
| 20260509050004 | 56 | 90 | 0.0 | 0.0 | 0.00 | 0.00 | 0.00 | 63 | 1010.1 |
| 20260509045504 | 56 | 90 | 0.0 | 0.0 | 0.00 | 0.00 | 0.00 | 63 | 1010.1 |
| 20260509045005 | 56 | 90 | 0.0 | 0.0 | 0.00 | 0.00 | 0.00 | 62 | 1010.1 |
| 20260509044504 | 56 | 90 | 0.0 | 0.0 | 0.00 | 0.00 | 0.00 | 62 | 1010.1 |
| 20260509044005 | 56 | 90 | 0.0 | 0.0 | 0.00 | 0.00 | 0.00 | 62 | 1010.3 |
| 20260509043505 | 56 | 90 | 0.0 | 0.0 | 0.00 | 0.00 | 0.00 | 61 | 1010.4 |
| 20260509043005 | 57 | 90 | 0.0 | 0.0 | 0.00 | 0.00 | 0.00 | 61 | 1010.5 |
| 20260509041504 | 57 | 94 | 0.0 | 0.0 | 0.00 | 0.00 | 0.00 | 59 | 1010.5 |
| 20260509041005 | 57 | 94 | 0.0 | 0.0 | 0.00 | 0.00 | 0.00 | 56 | 1010.6 |
| 20260509040504 | 57 | 92 | 0.0 | 0.0 | 0.00 | 0.00 | 0.00 | 57 | 1010.6 |
| 20260509040005 | 57 | 91 | 0.0 | 0.0 | 0.00 | 0.00 | 0.00 | 60 | 1010.7 |
| 20260509035004 | 57 | 89 | 0.0 | 0.0 | 0.00 | 0.00 | 0.00 | 59 | 1010.7 |
| 20260509034504 | 56 | 90 | 0.0 | 0.0 | 0.00 | 0.00 | 0.00 | 56 | 1010.6 |
| 20260509034005 | 56 | 87 | 0.0 | 1.0 | 0.00 | 0.00 | 0.00 | 57 | 1010.6 |
| 20260509033505 | 56 | 90 | 0.0 | 0.0 | 0.00 | 0.00 | 0.00 | 58 | 1010.6 |
| 20260509033005 | 56 | 89 | 0.0 | 0.0 | 0.00 | 0.00 | 0.00 | 60 | 1010.7 |
| 20260509032505 | 56 | 38 | 0.0 | 0.0 | 0.00 | 0.00 | 0.00 | 61 | 1010.8 |
| 20260509032004 | 56 | 38 | 0.0 | 0.0 | 0.00 | 0.00 | 0.00 | 61 | 1010.9 |
| 20260509031505 | 57 | 342 | 0.0 | 0.0 | 0.00 | 0.00 | 0.00 | 61 | 1010.9 |
| 20260509031006 | 57 | 342 | 0.0 | 0.0 | 0.00 | 0.00 | 0.00 | 62 | 1010.9 |
| 20260509030505 | 57 | 341 | 0.0 | 0.0 | 0.00 | 0.00 | 0.00 | 63 | 1010.9 |
| 20260509030004 | 56 | 342 | 0.0 | 0.0 | 0.00 | 0.00 | 0.00 | 61 | 1010.9 |
| 20260509025504 | 56 | 78 | 0.0 | 3.0 | 0.00 | 0.00 | 0.00 | 61 | 1010.9 |
| 20260509024004 | 56 | 329 | 0.0 | 0.0 | 0.00 | 0.00 | 0.00 | 64 | 1011.1 |
| 20260509023504 | 56 | 329 | 0.0 | 0.0 | 0.00 | 0.00 | 0.00 | 64 | 1011.2 |
| 20260509023005 | 56 | 329 | 0.0 | 0.0 | 0.00 | 0.00 | 0.00 | 64 | 1011.3 |
| 20260509022505 | 56 | 329 | 0.0 | 0.0 | 0.00 | 0.00 | 0.00 | 64 | 1011.2 |
| 20260509022004 | 56 | 329 | 0.0 | 0.0 | 0.00 | 0.00 | 0.00 | 63 | 1011.2 |
| 20260509021505 | 56 | 36 | 0.0 | 0.0 | 0.00 | 0.00 | 0.00 | 62 | 1011.1 |
| 20260509021004 | 56 | 28 | 0.0 | 0.0 | 0.00 | 0.00 | 0.00 | 62 | 1011.1 |
| 20260509020504 | 56 | 28 | 0.0 | 0.0 | 0.00 | 0.00 | 0.00 | 62 | 1011.1 |
| 20260509020005 | 56 | 26 | 0.0 | 0.0 | 0.00 | 0.00 | 0.00 | 62 | 1011.2 |
| 20260509015504 | 56 | 355 | 0.0 | 0.0 | 0.00 | 0.00 | 0.00 | 62 | 1011.1 |
| 20260509015004 | 57 | 355 | 0.0 | 0.0 | 0.00 | 0.00 | 0.00 | 62 | 1011.0 |
| 20260509014505 | 57 | 355 | 0.0 | 0.0 | 0.00 | 0.00 | 0.00 | 61 | 1011.0 |
| 20260509014004 | 57 | 355 | 0.0 | 0.0 | 0.00 | 0.00 | 0.00 | 61 | 1011.0 |
| 20260509013505 | 57 | 355 | 0.0 | 0.0 | 0.00 | 0.00 | 0.00 | 61 | 1011.0 |
| 20260509012504 | 58 | 348 | 0.0 | 0.0 | 0.00 | 0.00 | 0.00 | 59 | 1011.0 |
| 20260509011004 | 58 | 337 | 0.0 | 0.0 | 0.00 | 0.00 | 0.00 | 57 | 1010.9 |
| 20260509010504 | 59 | 336 | 0.0 | 0.0 | 0.00 | 0.00 | 0.00 | 55 | 1010.9 |
| 20260509010005 | 59 | 336 | 0.0 | 0.0 | 0.00 | 0.00 | 0.00 | 55 | 1010.9 |
| 20260509005504 | 59 | 336 | 0.0 | 0.0 | 0.00 | 0.00 | 0.00 | 55 | 1010.8 |
| 20260509005004 | 59 | 336 | 0.0 | 0.0 | 0.00 | 0.00 | 0.00 | 53 | 1010.8 |
| 20260509004504 | 60 | 336 | 0.0 | 0.0 | 0.00 | 0.00 | 0.00 | 52 | 1010.8 |
| 20260509004004 | 60 | 336 | 0.0 | 0.0 | 0.00 | 0.00 | 0.00 | 51 | 1010.9 |
| 20260509003504 | 60 | 336 | 0.0 | 0.0 | 0.00 | 0.00 | 0.00 | 50 | 1010.8 |
| 20260509003004 | 61 | 336 | 0.0 | 0.0 | 0.00 | 0.00 | 0.00 | 49 | 1010.7 |
| 20260509002505 | 61 | 336 | 0.0 | 0.0 | 0.00 | 0.00 | 0.00 | 48 | 1010.6 |
| 20260509001503 | 62 | 336 | 0.0 | 0.0 | 0.00 | 0.00 | 0.00 | 47 | 1010.6 |
| 20260509001004 | 62 | 336 | 0.0 | 0.0 | 0.00 | 0.00 | 0.00 | 46 | 1010.6 |
| 20260509000004 | 63 | 336 | 0.0 | 0.0 | 0.00 | 0.00 | 0.00 | 45 | 1010.5 |
| 20260508235503 | 63 | 336 | 0.0 | 0.0 | 0.00 | 0.00 | 0.00 | 45 | 1010.5 |
| 20260508235004 | 63 | 336 | 0.0 | 0.0 | 0.00 | 0.00 | 0.00 | 45 | 1010.5 |
| 20260508234504 | 63 | 336 | 0.0 | 0.0 | 0.00 | 0.00 | 0.00 | 44 | 1010.4 |
| 20260508234009 | 64 | 336 | 0.0 | 0.0 | 0.00 | 0.00 | 0.00 | 43 | 1010.3 |
| 20260508233509 | 64 | 336 | 0.0 | 0.0 | 0.00 | 0.00 | 0.00 | 43 | 1010.2 |
| 20260508233009 | 64 | 327 | 0.0 | 3.0 | 0.00 | 0.00 | 0.00 | 43 | 1010.3 |
| 20260508232508 | 64 | 335 | 0.0 | 2.0 | 0.00 | 0.00 | 0.00 | 42 | 1010.3 |
| 20260508232008 | 64 | 319 | 0.0 | 3.0 | 0.00 | 0.00 | 0.00 | 42 | 1010.3 |
| 20260508231008 | 64 | 281 | 0.0 | 0.0 | 0.00 | 0.00 | 0.00 | 42 | 1010.4 |
| 20260508225509 | 64 | 324 | 0.0 | 2.0 | 0.00 | 0.00 | 0.00 | 42 | 1010.3 |
| 20260508225008 | 64 | 330 | 0.0 | 0.0 | 0.00 | 0.00 | 0.00 | 41 | 1010.3 |
| 20260508224508 | 64 | 301 | 0.0 | 1.0 | 0.00 | 0.00 | 0.00 | 41 | 1010.4 |
| 20260508224008 | 64 | 312 | 0.0 | 2.0 | 0.00 | 0.00 | 0.00 | 41 | 1010.3 |
| 20260508223508 | 64 | 313 | 0.0 | 8.0 | 0.00 | 0.00 | 0.00 | 41 | 1010.4 |
| 20260508223008 | 64 | 294 | 0.0 | 9.0 | 0.00 | 0.00 | 0.00 | 41 | 1010.4 |
| 20260508222508 | 64 | 320 | 0.0 | 3.0 | 0.00 | 0.00 | 0.00 | 40 | 1010.4 |
| 20260508222009 | 64 | 311 | 0.0 | 0.0 | 0.00 | 0.00 | 0.00 | 40 | 1010.4 |
| 20260508221508 | 64 | 316 | 1.0 | 7.0 | 0.00 | 0.00 | 0.00 | 39 | 1010.3 |
| 20260508220509 | 65 | 285 | 0.0 | 6.0 | 0.00 | 0.00 | 0.00 | 39 | 1010.4 |
| 20260508220008 | 65 | 298 | 1.0 | 10.0 | 0.00 | 0.00 | 0.00 | 39 | 1010.4 |
| 20260508215008 | 65 | 258 | 0.0 | 9.0 | 0.00 | 0.00 | 0.00 | 39 | 1010.4 |
| 20260508214508 | 65 | 290 | 0.0 | 6.0 | 0.00 | 0.00 | 0.00 | 39 | 1010.4 |
| 20260508212508 | 65 | 240 | 0.0 | 6.0 | 0.00 | 0.00 | 0.00 | 39 | 1010.4 |
| 20260508212008 | 65 | 283 | 0.0 | 9.0 | 0.00 | 0.00 | 0.00 | 39 | 1010.3 |
| 20260508211508 | 65 | 294 | 1.0 | 13.0 | 0.00 | 0.00 | 0.00 | 38 | 1010.3 |
| 20260508210508 | 65 | 321 | 3.0 | 12.0 | 0.00 | 0.00 | 0.00 | 38 | 1010.3 |
| 20260508205508 | 65 | 285 | 0.0 | 2.0 | 0.00 | 0.00 | 0.00 | 38 | 1010.3 |
| 20260508205008 | 65 | 283 | 0.0 | 1.0 | 0.00 | 0.00 | 0.00 | 37 | 1010.3 |
| 20260508204508 | 65 | 312 | 0.0 | 0.0 | 0.00 | 0.00 | 0.00 | 37 | 1010.3 |
| 20260508203508 | 65 | 312 | 1.0 | 6.0 | 0.00 | 0.00 | 0.00 | 36 | 1010.5 |
| 20260508202508 | 65 | 276 | 0.0 | 1.0 | 0.00 | 0.00 | 0.00 | 36 | 1010.6 |
| 20260508202008 | 65 | 295 | 2.0 | 12.0 | 0.00 | 0.00 | 0.00 | 35 | 1010.6 |
| 20260508201508 | 66 | 279 | 4.0 | 14.0 | 0.00 | 0.00 | 0.00 | 35 | 1010.6 |
| 20260508201008 | 66 | 296 | 2.0 | 9.0 | 0.00 | 0.00 | 0.00 | 35 | 1010.6 |
| 20260508200508 | 66 | 313 | 1.0 | 10.0 | 0.00 | 0.00 | 0.00 | 35 | 1010.4 |
| 20260508200008 | 66 | 286 | 1.0 | 9.0 | 0.00 | 0.00 | 0.00 | 35 | 1010.5 |
| 20260508195508 | 66 | 309 | 2.0 | 12.0 | 0.00 | 0.00 | 0.00 | 35 | 1010.6 |
| 20260508195008 | 66 | 280 | 3.0 | 15.0 | 0.00 | 0.00 | 0.00 | 34 | 1010.7 |
| 20260508194508 | 66 | 299 | 2.0 | 10.0 | 0.00 | 0.00 | 0.00 | 35 | 1010.7 |
| 20260508193509 | 66 | 262 | 1.0 | 5.0 | 0.00 | 0.00 | 0.00 | 37 | 1010.7 |
| 20260508192507 | 66 | 245 | 2.0 | 14.0 | 0.00 | 0.00 | 0.00 | 35 | 1010.9 |
| 20260508192008 | 66 | 263 | 0.0 | 6.0 | 0.00 | 0.00 | 0.00 | 35 | 1010.8 |
| 20260508191508 | 66 | 251 | 0.0 | 9.0 | 0.00 | 0.00 | 0.00 | 34 | 1010.9 |
| 20260508191008 | 66 | 237 | 1.0 | 9.0 | 0.00 | 0.00 | 0.00 | 34 | 1011.0 |
| 20260508185508 | 67 | 247 | 5.0 | 14.0 | 0.00 | 0.00 | 0.00 | 34 | 1011.1 |
| 20260508185008 | 67 | 229 | 5.0 | 15.0 | 0.00 | 0.00 | 0.00 | 35 | 1011.0 |
| 20260508184508 | 67 | 252 | 1.0 | 9.0 | 0.00 | 0.00 | 0.00 | 37 | 1011.0 |
| 20260508184007 | 66 | 258 | 2.0 | 17.0 | 0.00 | 0.00 | 0.00 | 36 | 1011.0 |
| 20260508183008 | 66 | 320 | 1.0 | 9.0 | 0.00 | 0.00 | 0.00 | 38 | 1011.2 |
| 20260508182507 | 66 | 306 | 1.0 | 6.0 | 0.00 | 0.00 | 0.00 | 36 | 1011.2 |
| 20260508182008 | 66 | 325 | 1.0 | 9.0 | 0.00 | 0.00 | 0.00 | 37 | 1011.3 |
| 20260508181507 | 66 | 263 | 2.0 | 10.0 | 0.00 | 0.00 | 0.00 | 36 | 1011.4 |
| 20260508181007 | 66 | 270 | 1.0 | 6.0 | 0.00 | 0.00 | 0.00 | 38 | 1011.4 |
| 20260508180507 | 65 | 282 | 0.0 | 6.0 | 0.00 | 0.00 | 0.00 | 39 | 1011.6 |
| 20260508180007 | 65 | 243 | 1.0 | 12.0 | 0.00 | 0.00 | 0.00 | 38 | 1011.5 |
| 20260508175507 | 65 | 291 | 1.0 | 12.0 | 0.00 | 0.00 | 0.00 | 38 | 1011.6 |
| 20260508175008 | 65 | 242 | 0.0 | 10.0 | 0.00 | 0.00 | 0.00 | 38 | 1011.8 |
| 20260508174507 | 65 | 242 | 2.0 | 12.0 | 0.00 | 0.00 | 0.00 | 39 | 1011.9 |
| 20260508174008 | 65 | 289 | 1.0 | 8.0 | 0.00 | 0.00 | 0.00 | 38 | 1011.9 |
| 20260508173507 | 66 | 293 | 3.0 | 14.0 | 0.00 | 0.00 | 0.00 | 38 | 1012.0 |
| 20260508173008 | 65 | 286 | 0.0 | 6.0 | 0.00 | 0.00 | 0.00 | 39 | 1011.9 |
| 20260508172507 | 65 | 306 | 0.0 | 3.0 | 0.00 | 0.00 | 0.00 | 39 | 1011.9 |
| 20260508172008 | 65 | 286 | 1.0 | 7.0 | 0.00 | 0.00 | 0.00 | 42 | 1012.0 |
| 20260508171507 | 65 | 287 | 1.0 | 9.0 | 0.00 | 0.00 | 0.00 | 41 | 1012.1 |
| 20260508171008 | 65 | 235 | 2.0 | 9.0 | 0.00 | 0.00 | 0.00 | 39 | 1012.4 |
| 20260508170507 | 65 | 266 | 2.0 | 12.0 | 0.00 | 0.00 | 0.00 | 40 | 1012.5 |
| 20260508170007 | 64 | 295 | 0.0 | 5.0 | 0.00 | 0.00 | 0.00 | 41 | 1012.5 |
| 20260508165507 | 64 | 288 | 2.0 | 16.0 | 0.00 | 0.00 | 0.00 | 39 | 1012.5 |
| 20260508165008 | 64 | 316 | 3.0 | 12.0 | 0.00 | 0.00 | 0.00 | 40 | 1012.6 |
| 20260508164007 | 63 | 333 | 2.0 | 10.0 | 0.00 | 0.00 | 0.00 | 40 | 1012.7 |
| 20260508163507 | 63 | 301 | 3.0 | 12.0 | 0.00 | 0.00 | 0.00 | 41 | 1012.8 |
| 20260508163007 | 63 | 266 | 1.0 | 12.0 | 0.00 | 0.00 | 0.00 | 41 | 1012.9 |
| 20260508162507 | 63 | 301 | 0.0 | 7.0 | 0.00 | 0.00 | 0.00 | 41 | 1012.8 |
| 20260508162007 | 62 | 270 | 2.0 | 12.0 | 0.00 | 0.00 | 0.00 | 41 | 1013.0 |
| 20260508161507 | 63 | 291 | 4.0 | 15.0 | 0.00 | 0.00 | 0.00 | 40 | 1012.9 |
| 20260508160507 | 63 | 284 | 2.0 | 10.0 | 0.00 | 0.00 | 0.00 | 40 | 1013.0 |
| 20260508160007 | 63 | 251 | 0.0 | 8.0 | 0.00 | 0.00 | 0.00 | 40 | 1013.1 |
| 20260508155007 | 63 | 291 | 7.0 | 17.0 | 0.00 | 0.00 | 0.00 | 39 | 1013.1 |
| 20260508154508 | 62 | 272 | 1.0 | 12.0 | 0.00 | 0.00 | 0.00 | 43 | 1013.0 |
| 20260508153507 | 62 | 234 | 0.0 | 0.0 | 0.00 | 0.00 | 0.00 | 41 | 1013.2 |
| 20260508153007 | 62 | 288 | 2.0 | 10.0 | 0.00 | 0.00 | 0.00 | 41 | 1013.1 |
| 20260508152507 | 62 | 276 | 1.0 | 10.0 | 0.00 | 0.00 | 0.00 | 41 | 1013.2 |
| 20260508152008 | 62 | 256 | 2.0 | 15.0 | 0.00 | 0.00 | 0.00 | 43 | 1013.3 |
| 20260508151507 | 61 | 279 | 2.0 | 13.0 | 0.00 | 0.00 | 0.00 | 44 | 1013.4 |